| time (UTC) | temp C | wind direction | speed KPH | gust KPH | rain 1hr cm | rain 24hr cm | rain mn cm | humidity % | barometer mb |
| 20260508213232 | 23 | 272 | 1.6 | 11.3 | 0.00 | 0.00 | 0.00 | 24 | 1019.4 |
| 20260508212233 | 22 | 228 | 4.8 | 9.7 | 0.00 | 0.00 | 0.00 | 25 | 1019.5 |
| 20260508211332 | 22 | 283 | 6.4 | 16.1 | 0.00 | 0.00 | 0.00 | 25 | 1019.4 |
| 20260508210332 | 22 | 217 | 4.8 | 14.5 | 0.00 | 0.00 | 0.00 | 24 | 1019.4 |
| 20260508205430 | 22 | 205 | 3.2 | 9.7 | 0.00 | 0.00 | 0.00 | 25 | 1019.5 |
| 20260508204433 | 22 | 221 | 4.8 | 16.1 | 0.00 | 0.00 | 0.00 | 25 | 1019.6 |
| 20260508203432 | 22 | 229 | 3.2 | 8.0 | 0.00 | 0.00 | 0.00 | 25 | 1019.8 |
| 20260508201430 | 21 | 207 | 4.8 | 9.7 | 0.00 | 0.00 | 0.00 | 26 | 1019.8 |
| 20260508200432 | 22 | 249 | 4.8 | 11.3 | 0.00 | 0.00 | 0.00 | 26 | 1019.8 |
| 20260508195431 | 22 | 279 | 1.6 | 9.7 | 0.00 | 0.00 | 0.00 | 27 | 1019.8 |
| 20260508194432 | 22 | 227 | 4.8 | 11.3 | 0.00 | 0.00 | 0.00 | 28 | 1020.0 |
| 20260508193431 | 22 | 259 | 3.2 | 8.0 | 0.00 | 0.00 | 0.00 | 28 | 1019.8 |
| 20260508192432 | 22 | 273 | 3.2 | 4.8 | 0.00 | 0.00 | 0.00 | 28 | 1020.0 |
| 20260508191432 | 22 | 244 | 4.8 | 8.0 | 0.00 | 0.00 | 0.00 | 30 | 1020.0 |
| 20260508190433 | 21 | 263 | 1.6 | 3.2 | 0.00 | 0.00 | 0.00 | 29 | 1020.1 |
| 20260508185432 | 21 | 209 | 1.6 | 11.3 | 0.00 | 0.00 | 0.00 | 32 | 1020.1 |
| 20260508184432 | 21 | 272 | 4.8 | 12.9 | 0.00 | 0.00 | 0.00 | 33 | 1020.2 |
| 20260508183430 | 21 | 249 | 3.2 | 17.7 | 0.00 | 0.00 | 0.00 | 33 | 1020.3 |
| 20260508182432 | 21 | 275 | 1.6 | 4.8 | 0.00 | 0.00 | 0.00 | 32 | 1020.3 |
| 20260508182334 | 21 | 269 | 4.8 | 11.3 | 0.00 | 0.00 | 0.00 | 33 | 1020.4 |
| 20260508181330 | 21 | 231 | 1.6 | 4.8 | 0.00 | 0.00 | 0.00 | 31 | 1020.3 |
| 20260508180332 | 21 | 274 | 3.2 | 8.0 | 0.00 | 0.00 | 0.00 | 32 | 1020.5 |
| 20260508174330 | 20 | 303 | 1.6 | 11.3 | 0.00 | 0.00 | 0.00 | 32 | 1020.5 |
| 20260508173330 | 20 | 256 | 6.4 | 9.7 | 0.00 | 0.00 | 0.00 | 33 | 1020.6 |
| 20260508172332 | 20 | 295 | 1.6 | 6.4 | 0.00 | 0.00 | 0.00 | 32 | 1020.7 |
| 20260508171330 | 19 | 302 | 1.6 | 9.7 | 0.00 | 0.00 | 0.00 | 35 | 1020.5 |
| 20260508170331 | 17 | 290 | 0.0 | 3.2 | 0.00 | 0.00 | 0.00 | 42 | 1020.6 |
| 20260508164332 | 16 | 336 | 0.0 | 3.2 | 0.00 | 0.00 | 0.00 | 47 | 1021.0 |
| 20260508162330 | 15 | 157 | 0.0 | 0.0 | 0.00 | 0.00 | 0.00 | 49 | 1021.0 |
| 20260508162230 | 15 | 157 | 0.0 | 3.2 | 0.00 | 0.00 | 0.00 | 49 | 1021.1 |
| 20260508161232 | 14 | 202 | 0.0 | 0.0 | 0.00 | 0.00 | 0.00 | 51 | 1021.2 |
| 20260508160233 | 13 | 225 | 0.0 | 3.2 | 0.00 | 0.00 | 0.00 | 54 | 1021.4 |
| 20260508153331 | 11 | 112 | 0.0 | 1.6 | 0.00 | 0.00 | 0.00 | 57 | 1021.6 |
| 20260508152430 | 11 | 225 | 0.0 | 1.6 | 0.00 | 0.00 | 0.00 | 60 | 1021.5 |
| 20260508151431 | 10 | 202 | 0.0 | 0.0 | 0.00 | 0.00 | 0.00 | 63 | 1021.6 |
| 20260508150430 | 9 | 202 | 0.0 | 0.0 | 0.00 | 0.00 | 0.00 | 65 | 1021.5 |
| 20260508144432 | 8 | 180 | 0.0 | 0.0 | 0.00 | 0.00 | 0.00 | 72 | 1021.4 |
| 20260508143430 | 7 | 225 | 0.0 | 0.0 | 0.00 | 0.00 | 0.00 | 76 | 1021.4 |
| 20260508143334 | 7 | 225 | 0.0 | 0.0 | 0.00 | 0.00 | 0.00 | 76 | 1021.4 |
| 20260508142431 | 6 | 292 | 0.0 | 0.0 | 0.00 | 0.00 | 0.00 | 80 | 1021.4 |
| 20260508140432 | 3 | 270 | 0.0 | 0.0 | 0.00 | 0.00 | 0.00 | 85 | 1021.1 |
| 20260508135431 | 2 | 327 | 0.0 | 0.0 | 0.00 | 0.00 | 0.00 | 86 | 1020.8 |
| 20260508134430 | 2 | 337 | 0.0 | 0.0 | 0.00 | 0.00 | 0.00 | 87 | 1020.8 |
| 20260508133434 | 2 | 337 | 0.0 | 0.0 | 0.00 | 0.00 | 0.00 | 88 | 1020.7 |
| 20260508132430 | 1 | 360 | 0.0 | 0.0 | 0.00 | 0.00 | 0.00 | 89 | 1020.5 |
| 20260508131430 | 1 | 360 | 0.0 | 0.0 | 0.00 | 0.00 | 0.00 | 88 | 1020.4 |
| 20260508130431 | 1 | 360 | 0.0 | 0.0 | 0.00 | 0.00 | 0.00 | 88 | 1020.4 |
| 20260508125431 | 1 | 360 | 0.0 | 0.0 | 0.00 | 0.00 | 0.00 | 88 | 1020.2 |
| 20260508124433 | 1 | 360 | 0.0 | 0.0 | 0.00 | 0.00 | 0.00 | 88 | 1020.0 |
| 20260508123432 | 1 | 360 | 0.0 | 0.0 | 0.00 | 0.00 | 0.00 | 88 | 1019.9 |
| 20260508122529 | 1 | 360 | 0.0 | 0.0 | 0.00 | 0.00 | 0.00 | 87 | 1019.8 |
| 20260508121531 | 1 | 360 | 0.0 | 0.0 | 0.00 | 0.00 | 0.00 | 87 | 1019.8 |
| 20260508114630 | 1 | 360 | 0.0 | 0.0 | 0.00 | 0.00 | 0.00 | 87 | 1019.8 |
| 20260508113729 | 1 | 360 | 0.0 | 1.6 | 0.00 | 0.00 | 0.00 | 86 | 1019.7 |
| 20260508112732 | 1 | 360 | 0.0 | 0.0 | 0.00 | 0.00 | 0.00 | 86 | 1019.8 |
| 20260508111730 | 1 | 360 | 0.0 | 0.0 | 0.00 | 0.00 | 0.00 | 87 | 1019.8 |
| 20260508110732 | 1 | 360 | 0.0 | 0.0 | 0.00 | 0.00 | 0.00 | 86 | 1019.6 |
| 20260508105731 | 1 | 360 | 0.0 | 0.0 | 0.00 | 0.00 | 0.00 | 86 | 1019.5 |
| 20260508104732 | 1 | 315 | 0.0 | 0.0 | 0.00 | 0.00 | 0.00 | 86 | 1019.5 |
| 20260508103732 | 1 | 315 | 0.0 | 0.0 | 0.00 | 0.00 | 0.00 | 85 | 1019.3 |
| 20260508102733 | 1 | 315 | 0.0 | 0.0 | 0.00 | 0.00 | 0.00 | 85 | 1019.3 |
| 20260508101832 | 2 | 315 | 0.0 | 0.0 | 0.00 | 0.00 | 0.00 | 84 | 1019.3 |
| 20260508100830 | 2 | 315 | 0.0 | 0.0 | 0.00 | 0.00 | 0.00 | 84 | 1019.1 |
| 20260508095831 | 2 | 315 | 0.0 | 0.0 | 0.00 | 0.00 | 0.00 | 83 | 1019.0 |
| 20260508094831 | 2 | 315 | 0.0 | 0.0 | 0.00 | 0.00 | 0.00 | 83 | 1019.1 |
| 20260508092830 | 2 | 315 | 0.0 | 0.0 | 0.00 | 0.00 | 0.00 | 81 | 1019.2 |
| 20260508092731 | 2 | 315 | 0.0 | 0.0 | 0.00 | 0.00 | 0.00 | 82 | 1019.1 |
| 20260508090830 | 2 | 315 | 0.0 | 0.0 | 0.00 | 0.00 | 0.00 | 82 | 1019.1 |
| 20260508085829 | 3 | 315 | 0.0 | 0.0 | 0.00 | 0.00 | 0.00 | 80 | 1019.1 |
| 20260508084830 | 3 | 315 | 0.0 | 0.0 | 0.00 | 0.00 | 0.00 | 81 | 1019.0 |
| 20260508083831 | 3 | 22 | 0.0 | 0.0 | 0.00 | 0.00 | 0.00 | 80 | 1019.1 |
| 20260508082832 | 3 | 22 | 0.0 | 0.0 | 0.00 | 0.00 | 0.00 | 79 | 1019.1 |
| 20260508081832 | 3 | 22 | 0.0 | 0.0 | 0.00 | 0.00 | 0.00 | 79 | 1019.1 |
| 20260508080834 | 3 | 110 | 0.0 | 0.0 | 0.00 | 0.00 | 0.00 | 79 | 1019.1 |
| 20260508075831 | 3 | 135 | 0.0 | 0.0 | 0.00 | 0.00 | 0.00 | 79 | 1019.1 |
| 20260508075732 | 3 | 135 | 0.0 | 0.0 | 0.00 | 0.00 | 0.00 | 79 | 1019.1 |
| 20260508074830 | 3 | 292 | 0.0 | 1.6 | 0.00 | 0.00 | 0.00 | 78 | 1019.1 |
| 20260508073832 | 4 | 292 | 0.0 | 0.0 | 0.00 | 0.00 | 0.00 | 77 | 1019.1 |
| 20260508072832 | 4 | 202 | 0.0 | 0.0 | 0.00 | 0.00 | 0.00 | 77 | 1019.0 |
| 20260508071930 | 4 | 254 | 0.0 | 3.2 | 0.00 | 0.00 | 0.00 | 76 | 1019.0 |
| 20260508071030 | 4 | 292 | 0.0 | 0.0 | 0.00 | 0.00 | 0.00 | 76 | 1019.1 |
| 20260508070129 | 5 | 292 | 0.0 | 0.0 | 0.00 | 0.00 | 0.00 | 75 | 1019.0 |
| 20260508065133 | 5 | 292 | 0.0 | 0.0 | 0.00 | 0.00 | 0.00 | 75 | 1018.7 |
| 20260508064129 | 5 | 292 | 0.0 | 0.0 | 0.00 | 0.00 | 0.00 | 74 | 1019.0 |
| 20260508063129 | 5 | 292 | 0.0 | 0.0 | 0.00 | 0.00 | 0.00 | 73 | 1018.9 |
| 20260508062131 | 5 | 292 | 0.0 | 0.0 | 0.00 | 0.00 | 0.00 | 71 | 1018.7 |
| 20260508061131 | 6 | 292 | 0.0 | 0.0 | 0.00 | 0.00 | 0.00 | 70 | 1018.7 |
| 20260508055108 | 6 | 292 | 0.0 | 0.0 | 0.00 | 0.00 | 0.00 | 68 | 1018.6 |
| 20260508054110 | 7 | 292 | 0.0 | 0.0 | 0.00 | 0.00 | 0.00 | 66 | 1018.5 |
| 20260508054009 | 7 | 292 | 0.0 | 0.0 | 0.00 | 0.00 | 0.00 | 66 | 1018.7 |
| 20260508053107 | 7 | 292 | 0.0 | 0.0 | 0.00 | 0.00 | 0.00 | 64 | 1018.6 |
| 20260508052108 | 7 | 292 | 0.0 | 0.0 | 0.00 | 0.00 | 0.00 | 63 | 1018.6 |
| 20260508051109 | 8 | 292 | 0.0 | 0.0 | 0.00 | 0.00 | 0.00 | 62 | 1018.5 |
| 20260508050207 | 8 | 292 | 0.0 | 0.0 | 0.00 | 0.00 | 0.00 | 61 | 1018.5 |
| 20260508045209 | 9 | 22 | 0.0 | 0.0 | 0.00 | 0.00 | 0.00 | 59 | 1018.5 |
| 20260508043209 | 9 | 275 | 0.0 | 0.0 | 0.00 | 0.00 | 0.00 | 59 | 1018.5 |
| 20260508041309 | 10 | 292 | 0.0 | 0.0 | 0.00 | 0.00 | 0.00 | 56 | 1018.3 |
| 20260508040308 | 10 | 292 | 0.0 | 0.0 | 0.00 | 0.00 | 0.00 | 54 | 1018.1 |
| 20260508035308 | 11 | 292 | 0.0 | 0.0 | 0.00 | 0.00 | 0.00 | 51 | 1018.1 |
| 20260508033310 | 12 | 22 | 0.0 | 0.0 | 0.00 | 0.00 | 0.00 | 48 | 1018.0 |
| 20260508032409 | 12 | 342 | 0.0 | 1.6 | 0.00 | 0.00 | 0.00 | 48 | 1017.8 |
| 20260508031409 | 12 | 315 | 0.0 | 0.0 | 0.00 | 0.00 | 0.00 | 47 | 1017.6 |
| 20260508030409 | 13 | 315 | 0.0 | 0.0 | 0.00 | 0.00 | 0.00 | 45 | 1017.6 |
| 20260508024409 | 15 | 22 | 3.2 | 3.2 | 0.00 | 0.00 | 0.00 | 41 | 1017.4 |
| 20260508023508 | 16 | 360 | 0.0 | 1.6 | 0.00 | 0.00 | 0.00 | 38 | 1017.3 |
| 20260508022509 | 17 | 360 | 1.6 | 3.2 | 0.00 | 0.00 | 0.00 | 33 | 1017.2 |
| 20260508020508 | 19 | 288 | 0.0 | 1.6 | 0.00 | 0.00 | 0.00 | 30 | 1017.0 |
| 20260508015507 | 20 | 262 | 0.0 | 1.6 | 0.00 | 0.00 | 0.00 | 30 | 1017.0 |
| 20260508015408 | 20 | 270 | 0.0 | 3.2 | 0.00 | 0.00 | 0.00 | 30 | 1017.1 |
| 20260508014409 | 20 | 292 | 0.0 | 3.2 | 0.00 | 0.00 | 0.00 | 29 | 1017.2 |
| 20260508013410 | 21 | 270 | 0.0 | 3.2 | 0.00 | 0.00 | 0.00 | 28 | 1017.0 |
| 20260508012410 | 21 | 276 | 1.6 | 6.4 | 0.00 | 0.00 | 0.00 | 28 | 1017.1 |
| 20260508011426 | 21 | 266 | 0.0 | 3.2 | 0.00 | 0.00 | 0.00 | 27 | 1017.0 |
| 20260508010508 | 22 | 271 | 0.0 | 6.4 | 0.00 | 0.00 | 0.00 | 27 | 1017.1 |
| 20260508004510 | 22 | 265 | 0.0 | 3.2 | 0.00 | 0.00 | 0.00 | 26 | 1017.0 |
| 20260508003508 | 22 | 275 | 1.6 | 6.4 | 0.00 | 0.00 | 0.00 | 27 | 1017.0 |
| 20260508001510 | 22 | 235 | 3.2 | 6.4 | 0.00 | 0.00 | 0.00 | 27 | 1017.0 |
| 20260508000607 | 22 | 237 | 3.2 | 6.4 | 0.00 | 0.00 | 0.00 | 27 | 1017.2 |
| 20260507235607 | 22 | 283 | 3.2 | 6.4 | 0.00 | 0.00 | 0.00 | 27 | 1017.6 |
| 20260507233708 | 22 | 13 | 0.0 | 3.2 | 0.00 | 0.00 | 0.00 | 28 | 1017.6 |
| 20260507232707 | 22 | 229 | 0.0 | 4.8 | 0.00 | 0.00 | 0.00 | 29 | 1017.8 |
| 20260507231707 | 21 | 251 | 1.6 | 3.2 | 0.00 | 0.00 | 0.00 | 29 | 1017.9 |
| 20260507230710 | 20 | 315 | 0.0 | 1.6 | 0.00 | 0.00 | 0.00 | 30 | 1018.0 |
| 20260507225807 | 20 | 16 | 0.0 | 3.2 | 0.00 | 0.00 | 0.00 | 30 | 1018.2 |
| 20260507224808 | 20 | 360 | 1.6 | 3.2 | 0.00 | 0.00 | 0.00 | 30 | 1018.6 |
| 20260507223808 | 20 | 270 | 1.6 | 6.4 | 0.00 | 0.00 | 0.00 | 30 | 1018.6 |
| 20260507222906 | 20 | 279 | 0.0 | 4.8 | 0.00 | 0.00 | 0.00 | 30 | 1018.6 |
| 20260507221911 | 20 | 289 | 0.0 | 4.8 | 0.00 | 0.00 | 0.00 | 29 | 1018.7 |
| 20260507221008 | 20 | 278 | 4.8 | 11.3 | 0.00 | 0.00 | 0.00 | 29 | 1018.8 |
| 20260507220008 | 20 | 275 | 1.6 | 6.4 | 0.00 | 0.00 | 0.00 | 29 | 1019.0 |
| 20260507215010 | 20 | 354 | 3.2 | 6.4 | 0.00 | 0.00 | 0.00 | 28 | 1019.0 |
| 20260507214108 | 21 | 280 | 3.2 | 14.5 | 0.00 | 0.00 | 0.00 | 27 | 1019.1 |